GFSMA_con_mucape_015.txt.gz
CAPE
0 0 0 0 0 0 0 0 0 0 0 0 0 0 0 0 0 0 0 0 0 0 0 0 0 0 0 2 32 180 198 195 143 112 125 133 133 135 50 24 15 14 17
0 0 0 0 0 0 0 0 0 0 0 0 0 0 0 0 0 0 0 0 0 0 0 0 0 0 0 0 5 54 185 338 239 191 151 143 155 178 196 213 214 219 158
0 0 0 0 0 0 0 0 0 0 0 0 0 0 0 0 0 0 0 0 0 0 0 0 0 0 0 0 1 15 34 178 377 306 243 190 177 203 222 255 270 300 363
0 0 0 0 0 0 0 0 0 0 0 2 2 2 0 0 0 0 0 0 0 0 0 0 0 0 0 0 0 5 47 46 20 229 375 370 269 248 263 298 350 383 427
0 0 0 0 0 0 4 0 0 0 0 0 0 0 0 0 0 0 0 0 0 0 0 0 0 0 0 0 0 3 124 107 82 99 184 319 469 461 427 424 433 406 450
0 0 0 0 0 0 0 0 0 0 0 0 0 0 0 0 0 0 0 0 0 0 0 0 0 0 0 0 0 0 16 254 239 182 157 183 269 395 512 528 525 518 547
0 0 0 0 0 0 0 0 0 0 5 13 9 0 1 4 0 0 0 0 0 0 0 0 0 0 0 0 0 0 0 1 149 310 350 329 312 337 397 481 548 593 575
0 0 0 0 0 0 0 0 0 0 2 4 29 33 29 6 14 16 11 0 0 0 0 0 0 0 0 0 1 1 0 0 4 65 311 425 495 542 591 575 555 564 584
0 0 0 0 0 0 0 0 0 0 0 0 0 8 8 0 7 0 11 4 3 3 0 0 0 4 5 4 2 0 19 22 47 61 146 402 591 667 736 737 740 761 738
0 0 0 0 0 0 0 0 0 0 0 0 0 0 0 2 0 0 0 0 1 5 3 1 8 5 0 0 0 0 24 20 71 72 174 259 340 363 488 870 907 921 725
0 0 0 0 0 0 0 0 0 0 0 0 0 0 0 0 0 0 0 0 0 0 6 10 1 7 19 60 66 28 0 9 21 147 377 468 550 596 653 651 783 1046 928
0 0 0 0 0 0 0 0 0 0 0 0 0 0 0 0 0 0 0 0 0 0 11 25 32 29 48 180 150 70 65 66 99 243 366 526 655 585 778 829 885 1131 1086
0 0 0 0 0 0 0 0 0 0 0 0 0 0 0 0 0 0 0 0 0 0 9 18 32 47 58 89 78 39 33 139 194 242 296 383 405 527 526 645 698 861 1161
0 0 0 0 0 0 0 0 0 0 0 0 0 0 0 0 0 0 0 11 0 0 0 0 1 6 20 25 30 3 0 0 13 127 83 125 308 265 316 434 447 389 630
0 0 0 0 0 0 0 0 0 0 0 0 0 0 0 0 0 3 37 75 12 0 0 0 0 0 32 15 4 0 0 2 45 66 121 154 197 235 303 319 273 264 311
0 0 0 0 0 0 0 0 0 0 0 0 0 0 0 0 0 20 20 6 24 0 0 0 0 37 0 0 0 0 0 0 0 27 46 27 71 139 178 200 211 209 197
0 0 0 0 0 0 0 0 0 0 0 0 0 0 0 0 0 0 0 0 0 0 0 0 32 0 0 0 0 0 0 0 30 61 68 13 11 83 127 141 138 154 171
0 0 0 0 0 0 0 0 0 0 0 0 0 0 0 0 0 0 0 0 0 0 0 0 0 0 0 0 0 0 0 50 4 0 0 83 2 0 2 73 104 108 87
0 0 0 0 0 0 0 0 0 0 0 0 0 0 0 0 0 0 0 0 0 12 0 16 0 0 15 0 0 0 0 0 0 0 0 0 10 0 0 1 73 63 85
0 0 0 0 0 0 0 0 0 0 0 0 0 0 0 0 0 0 0 16 23 69 67 57 55 53 31 28 41 0 0 0 0 13 0 16 19 9 1 5 5 34 37
0 0 0 0 0 0 0 0 0 0 0 0 0 0 0 0 0 0 49 47 67 58 57 60 52 60 52 1 0 0 0 0 18 63 28 4 47 40 14 3 2 7 1
0 0 0 0 0 0 0 0 0 0 0 0 0 0 0 0 0 51 40 50 58 50 62 90 61 0 0 55 51 54 58 0 0 49 8 0 0 0 0 0 0 0 0
0 0 0 0 0 0 0 0 0 0 0 0 0 0 0 0 48 25 16 60 58 26 17 56 0 0 23 0 51 48 0 0 0 29 16 0 0 0 0 0 0 0 0
0 0 0 0 0 0 0 0 0 0 0 0 0 0 0 0 0 0 0 45 0 0 0 0 0 0 66 54 50 44 44 37 17 5 0 0 0 0 0 0 0 0 18
0 0 0 0 0 0 0 0 0 0 0 0 0 0 0 0 0 0 77 0 0 0 0 0 0 21 18 7 0 7 0 0 0 0 0 0 0 0 0 0 0 0 0
0 0 0 0 0 0 0 0 0 0 0 0 0 0 0 0 0 112 0 0 0 0 0 0 0 0 0 0 0 0 0 0 0 0 0 0 0 0 0 0 0 0 0

GFSMA_con_mucape_018.txt.gz
CAPE
0 0 0 0 0 0 0 1 1 1 0 1 1 0 1 0 0 0 0 0 0 0 0 0 0 0 0 3 6 24 39 224 268 233 151 153 171 168 146 92 99 114 96
0 0 0 0 0 0 0 0 0 0 0 0 0 0 0 2 2 2 2 0 0 0 0 0 0 0 0 0 0 22 28 148 273 394 293 249 199 193 204 213 212 220 223
0 0 0 0 0 1 0 0 0 0 3 4 5 4 5 6 4 5 7 3 2 0 0 0 1 1 1 2 2 12 69 84 115 236 409 393 361 239 240 252 262 265 327
0 0 0 1 1 0 0 0 0 9 12 14 13 14 14 10 4 5 4 3 2 0 0 0 0 0 1 27 63 80 181 126 111 131 223 358 442 352 356 327 310 353 370
0 0 0 0 0 0 0 3 4 5 7 10 5 7 7 5 5 7 9 5 1 0 0 0 0 0 0 0 7 75 192 291 224 191 182 180 211 406 442 481 421 397 426
0 0 0 0 0 0 0 0 0 0 1 6 4 5 3 0 1 4 11 15 22 17 15 13 6 1 0 0 0 1 21 90 275 262 270 271 260 269 348 462 590 565 557
0 0 0 0 0 0 0 0 0 0 0 0 0 0 0 0 7 1 33 36 18 22 31 57 58 46 25 9 0 0 1 28 83 223 298 311 348 326 381 451 438 536 693
0 0 0 0 0 0 0 0 0 0 0 0 0 0 0 0 0 0 0 0 0 0 1 33 55 74 96 120 88 42 12 21 75 155 211 363 442 499 621 675 549 531 530
0 0 0 0 0 0 0 0 0 0 0 0 0 0 0 0 0 0 0 0 0 0 0 0 3 7 19 47 83 97 33 43 68 135 232 225 346 394 365 681 935 939 758
0 0 0 0 0 0 0 0 0 0 0 0 0 0 0 0 0 0 0 0 0 0 0 0 0 0 1 8 68 72 72 120 186 253 277 277 303 353 463 591 800 1197 1108
0 0 0 0 0 0 0 0 0 0 0 0 0 0 0 0 0 0 0 0 0 0 0 0 0 3 2 12 24 39 114 52 119 196 309 365 416 447 358 381 942 934 1192
0 0 0 0 0 0 0 0 0 0 0 0 0 0 0 0 0 0 0 0 0 0 0 0 0 14 31 9 11 13 6 4 6 4 0 54 140 172 199 313 547 268 147
0 0 0 0 0 0 0 0 0 0 0 0 0 0 0 0 0 0 0 0 0 0 0 0 1 9 15 25 24 32 6 0 0 0 2 14 22 25 34 126 190 161 135
0 0 0 0 0 0 0 0 0 0 0 0 0 0 0 0 0 0 0 0 0 0 0 0 0 0 3 6 31 60 4 11 1 2 11 1 0 22 28 13 42 131 155
0 0 0 0 0 0 0 0 0 0 0 0 0 0 0 0 0 0 0 0 0 0 0 0 0 0 0 0 3 41 19 0 37 0 0 2 12 51 63 43 24 50 120
0 0 0 0 0 0 0 0 0 0 0 0 0 0 0 0 0 0 0 0 0 0 0 0 0 0 0 4 40 34 21 29 33 0 0 4 30 54 20 0 33 39 39
0 0 0 0 0 0 0 0 0 0 0 0 0 0 0 0 0 0 0 0 0 0 0 0 26 7 0 19 24 21 34 28 42 18 3 34 10 36 43 47 3 17 49
0 0 0 0 0 0 0 0 0 0 0 0 0 0 0 0 0 0 0 0 0 34 76 0 3 37 4 18 51 60 53 42 40 16 12 1 19 23 49 24 45 18 14
0 0 0 0 0 0 0 0 0 0 0 0 0 0 0 0 0 0 0 0 39 48 72 84 53 53 46 45 43 32 29 24 32 45 30 21 23 36 51 51 15 8 17
0 0 0 0 0 0 0 0 0 0 0 0 0 0 0 0 0 0 0 0 53 11 58 66 78 69 63 24 50 66 47 31 64 43 29 36 45 48 47 26 24 15 31
0 0 0 0 0 0 0 0 0 0 0 0 0 0 0 0 0 0 50 44 59 54 68 85 86 62 43 41 45 53 72 56 22 52 85 103 87 108 72 13 4 0 29
0 0 0 0 0 0 0 0 0 0 0 0 0 0 0 0 0 0 51 56 51 67 75 105 84 0 0 1 60 67 71 0 0 6 68 63 74 36 41 20 1 10 34
0 0 0 0 0 0 0 0 0 0 0 0 0 0 0 0 0 0 0 33 54 89 63 31 0 0 0 0 21 28 80 76 45 21 70 58 18 46 33 0 0 0 0
0 0 0 0 0 0 0 0 0 0 0 0 0 0 0 0 0 0 15 73 93 0 36 21 0 0 0 90 87 79 0 0 22 59 24 1 0 0 0 0 0 0 0
0 0 0 0 0 0 0 0 0 0 0 0 0 0 0 0 0 0 70 0 0 0 0 0 0 0 0 0 0 0 0 0 0 0 0 0 0 0 0 0 0 1 0
0 0 0 0 0 0 0 0 0 0 0 0 0 0 0 0 0 52 97 0 0 0 0 0 0 0 0 0 0 0 0 0 0 0 0 0 0 0 0 0 0 1 1

GFSMA_con_mucape_021.txt.gz
CAPE
0 0 0 0 0 0 0 0 0 0 3 6 7 6 10 10 13 14 10 1 5 4 0 0 5 12 8 1 0 27 64 93 158 215 267 239 175 180 158 99 110 134 133
2 2 1 3 3 4 4 6 6 10 13 10 15 14 17 26 24 22 23 16 7 9 4 0 0 10 52 58 35 46 21 81 99 146 223 356 319 217 224 237 185 172 201
3 3 3 5 11 14 12 9 11 30 25 38 23 8 22 19 13 8 8 12 23 19 25 29 15 0 11 94 116 133 205 113 106 118 147 228 364 285 336 318 315 270 232
3 4 9 9 15 31 39 57 5 12 8 7 6 0 0 0 0 0 0 5 23 21 22 49 53 30 10 14 39 146 228 266 244 179 175 177 212 342 441 358 374 432 419
4 5 5 2 0 0 0 0 0 0 0 0 0 0 0 0 0 0 0 1 9 37 37 23 24 36 38 5 12 34 64 216 255 260 291 292 276 294 342 433 432 382 493
0 0 0 0 0 0 0 0 0 0 0 0 0 0 0 0 0 0 6 19 21 28 11 20 63 75 42 73 103 119 125 118 144 255 327 306 388 410 425 424 427 494 646
0 0 0 0 0 0 0 0 0 0 0 0 0 0 0 0 0 0 0 0 5 0 0 0 0 22 44 147 160 212 176 199 208 186 259 295 223 353 443 603 598 492 605
0 0 0 0 0 0 0 0 0 0 0 0 0 0 0 0 0 0 0 0 0 0 0 0 0 5 8 0 0 103 180 191 150 195 291 295 271 259 269 373 585 835 760
0 0 0 0 0 0 0 0 0 0 0 0 0 0 0 0 0 0 0 0 0 0 0 0 0 0 0 0 0 0 8 183 121 138 168 151 189 191 218 201 221 468 930
0 0 0 0 0 0 0 0 0 0 0 0 0 0 0 0 0 0 0 0 0 0 0 0 0 0 0 0 0 12 58 16 28 92 103 68 113 165 246 318 394 401 452
0 0 0 0 0 0 0 0 0 0 0 0 0 0 0 0 0 0 0 0 0 0 0 0 0 0 0 0 4 0 19 5 8 18 12 36 0 19 46 59 126 142 176
0 0 0 0 0 0 0 0 0 0 0 0 0 0 0 0 0 0 0 0 0 0 0 0 0 0 14 7 27 40 18 0 0 1 34 2 0 1 40 1 16 111 93
0 0 0 0 0 0 0 0 0 0 0 0 0 0 0 0 0 0 0 0 0 0 0 0 0 0 1 1 0 0 0 0 0 0 26 44 36 19 1 0 0 0 0
0 0 0 0 0 0 0 0 0 0 0 0 0 0 0 0 0 0 0 0 0 0 0 0 0 0 0 0 0 0 0 0 47 35 47 48 15 5 13 12 1 0 37
0 0 0 0 0 0 0 0 0 0 0 0 0 0 0 0 0 0 0 0 0 0 0 0 0 0 1 0 4 2 2 40 69 51 30 35 59 43 18 13 22 36 37
0 0 0 0 0 0 0 0 0 0 0 0 0 0 0 0 0 0 0 0 0 0 0 0 0 0 0 25 18 36 28 53 52 27 43 115 108 49 24 49 35 20 24
0 0 0 0 0 0 0 0 0 0 0 0 0 0 0 0 0 0 0 0 0 0 0 0 0 0 0 4 14 34 17 40 33 47 48 57 59 76 45 38 31 17 14
0 0 0 0 0 0 0 0 0 0 0 0 0 0 0 0 0 0 0 0 0 0 0 0 0 0 0 9 15 21 17 24 9 5 34 44 84 61 66 51 62 63 73
0 0 0 0 0 0 0 0 0 0 0 0 0 0 0 0 0 0 0 0 0 0 4 0 0 8 14 18 11 0 0 0 12 42 35 48 56 56 88 77 112 99 76
0 0 0 0 0 0 0 0 0 0 0 0 0 0 0 0 0 0 0 0 0 0 0 0 0 0 12 8 0 0 0 0 0 10 14 7 11 29 35 64 81 97 80
0 0 0 0 0 0 0 0 0 0 0 0 0 0 0 0 0 0 0 0 0 0 0 0 0 0 26 0 0 0 0 0 0 0 0 5 20 21 31 16 43 58 68
0 0 0 0 0 0 0 0 0 0 0 0 0 0 0 0 0 0 0 63 54 1 0 0 0 0 0 0 0 0 0 0 0 0 5 0 4 2 1 0 7 23 22
0 0 0 0 0 0 0 0 0 0 0 0 0 0 0 0 0 0 0 0 46 75 79 1 0 0 0 0 0 0 0 0 0 0 0 0 0 0 0 3 18 0 18
0 0 0 0 0 0 0 0 0 0 0 0 0 0 0 0 0 0 0 0 88 65 0 0 0 0 0 0 0 0 0 0 0 0 0 0 0 0 0 0 0 0 0
0 0 0 0 0 0 0 0 0 0 0 0 0 0 0 0 0 55 74 0 0 0 0 0 0 0 0 0 0 0 0 0 0 0 0 0 0 0 0 0 0 0 0
0 0 0 0 0 0 0 0 0 0 0 0 0 0 0 0 0 105 31 0 0 0 0 0 0 0 0 0 0 0 0 0 0 0 0 0 0 0 0 0 0 0 0

GFSMA_con_mucape_024.txt.gz
CAPE
0 0 0 0 0 0 0 0 0 2 6 9 12 21 11 12 18 15 12 7 26 89 95 49 43 47 53 44 111 139 110 123 162 165 207 304 379 367 261 239 192 181 181
5 0 0 2 18 8 10 10 23 8 7 15 10 11 5 6 3 3 0 0 4 62 136 102 69 112 126 116 92 162 188 236 178 178 197 205 245 277 336 385 344 270 252
14 2 3 13 12 8 21 14 11 7 2 0 0 0 0 0 0 0 0 0 0 0 50 163 279 181 104 132 136 80 149 191 215 277 230 232 228 213 241 295 294 378 410
14 0 14 6 10 9 0 0 0 0 0 0 0 0 0 0 0 0 0 0 0 0 20 132 212 164 189 94 118 118 114 206 210 194 192 239 232 251 253 263 331 392 401
0 4 2 0 0 0 0 0 0 0 0 0 0 0 0 0 0 0 0 0 0 0 6 13 37 98 160 216 156 128 144 201 211 251 273 268 241 288 404 405 348 359 489
0 0 0 0 0 0 0 0 0 0 0 0 0 0 0 0 0 0 0 0 0 0 0 16 31 12 1 20 4 5 41 97 195 206 256 219 223 194 202 253 542 693 534
0 0 0 0 0 0 0 0 0 0 0 0 0 0 0 0 0 0 0 0 0 0 0 0 0 0 0 0 4 14 19 10 0 29 195 214 155 177 166 169 248 329 566
0 0 0 0 0 0 0 0 0 0 0 0 0 0 0 0 0 0 0 0 0 0 0 0 0 0 0 0 0 0 0 0 0 12 41 53 118 142 163 173 179 199 256
0 0 0 0 0 0 0 0 0 0 0 0 0 0 0 0 0 0 0 0 0 0 0 0 0 0 0 0 0 0 0 0 0 22 18 52 90 114 132 124 115 127 171
0 0 0 0 0 0 0 0 0 0 0 0 0 0 0 0 0 0 0 0 0 0 0 0 0 0 0 0 0 0 10 67 11 28 68 89 86 87 116 103 106 121 89
0 0 0 0 0 0 0 0 0 0 0 0 0 0 0 0 0 0 0 0 0 0 0 0 0 0 0 0 0 0 3 0 0 0 7 37 78 136 146 126 127 113 93
0 0 0 0 0 0 0 0 0 0 0 0 0 0 0 0 0 0 0 0 0 0 0 0 0 0 0 0 0 0 0 0 0 0 6 23 39 57 127 125 104 80 50
0 0 0 0 0 0 0 0 0 0 0 0 0 0 0 0 0 0 0 0 0 0 0 0 0 0 0 0 0 0 0 0 0 0 1 26 72 99 116 118 104 76 60
0 0 0 0 0 0 0 0 0 0 0 0 0 0 0 0 0 0 0 0 0 0 0 0 0 0 0 0 2 32 0 4 6 20 30 47 50 55 82 84 74 112 77
0 0 0 0 0 0 0 0 0 0 0 0 0 0 0 0 0 0 0 0 0 0 0 0 0 0 0 0 13 23 2 12 38 30 44 48 59 62 88 86 102 102 92
0 0 0 0 0 0 0 0 0 0 0 0 0 0 0 0 0 0 0 0 0 0 0 0 0 0 0 0 2 7 0 41 16 41 51 44 63 64 58 74 84 90 52
0 0 0 0 0 0 0 0 0 0 0 0 0 0 0 0 0 0 0 0 0 0 0 0 0 0 0 0 0 0 2 0 3 28 15 13 21 54 74 78 70 80 100
0 0 0 0 0 0 0 0 0 0 0 0 0 0 0 0 0 0 0 0 0 0 0 0 0 0 0 0 0 0 3 20 6 0 21 24 50 47 51 85 82 74 65
0 0 0 0 0 0 0 0 0 0 0 0 0 0 0 0 0 0 0 0 0 0 0 0 0 0 0 0 0 0 0 0 0 0 3 13 32 47 51 57 68 78 78
0 0 0 0 0 0 0 0 0 0 0 0 0 0 0 0 0 0 0 0 0 0 0 0 0 0 0 0 0 0 0 0 0 0 0 0 31 26 31 55 59 51 50
0 0 0 0 0 0 0 0 0 0 0 0 0 0 0 0 0 0 0 0 0 0 0 0 0 0 0 0 0 0 0 0 0 0 0 0 0 0 0 4 5 12 23
0 0 0 0 0 0 0 0 0 0 0 0 0 0 0 0 0 0 0 0 46 1 0 0 0 0 0 0 0 0 0 0 0 0 0 0 0 0 0 0 0 46 68
0 0 0 0 0 0 0 0 0 0 0 0 0 0 0 0 0 0 0 0 69 94 81 2 0 0 0 0 0 0 0 0 0 0 0 0 0 0 0 0 0 0 0
0 0 0 0 0 0 0 0 0 0 0 0 0 0 0 0 0 0 0 0 0 0 0 0 0 0 0 0 0 0 0 0 0 0 0 0 0 0 0 0 0 0 0
0 0 0 0 0 0 0 0 0 0 0 0 0 0 0 0 0 61 0 0 0 0 0 0 0 15 0 0 0 0 0 0 0 0 0 0 0 0 0 0 0 0 0
0 0 0 0 0 0 0 0 0 0 0 0 0 0 0 0 0 33 17 0 0 0 0 0 0 0 0 0 0 0 0 0 0 0 0 0 0 0 0 0 0 0 0

GFSMA_con_mucape_027.txt.gz
CAPE
0 1 1 0 0 0 1 1 3 3 5 12 19 17 13 2 3 1 0 0 20 80 66 54 80 321 201 131 125 185 184 134 141 242 241 235 229 287 358 409 383 311 257
41 32 26 16 11 5 32 5 5 5 11 7 1 0 0 0 0 0 0 0 0 0 26 24 79 105 87 104 115 185 195 182 158 142 179 274 244 233 247 247 253 323 380
52 51 29 42 20 26 14 2 2 1 0 0 0 0 0 0 0 0 0 0 0 0 0 0 4 6 42 91 99 105 175 191 193 206 214 175 193 252 288 293 321 346 374
119 77 17 32 56 4 0 0 0 0 0 0 0 0 0 0 0 0 0 0 0 0 0 0 5 0 3 1 6 31 90 161 163 169 131 167 169 178 178 294 380 358 340
0 1 0 0 0 0 0 0 0 0 0 0 0 0 0 0 0 0 0 0 0 0 0 0 2 1 0 7 0 7 0 0 4 0 52 90 56 103 149 159 186 236 371
0 0 0 0 0 0 0 0 0 0 0 0 0 0 0 0 0 0 0 0 0 0 0 0 0 0 0 1 0 0 0 0 0 0 0 2 27 26 69 82 102 110 153
0 0 0 0 0 0 0 0 0 0 0 0 0 0 0 0 0 0 0 0 0 0 0 0 0 0 0 0 0 0 0 0 0 0 0 0 8 21 57 95 91 101 118
0 0 0 0 0 0 0 0 0 0 0 0 0 0 0 0 0 0 0 0 0 0 0 0 0 0 0 0 0 0 0 0 0 1 1 10 25 22 36 55 67 66 99
0 0 0 0 0 0 0 0 0 0 0 0 0 0 0 0 0 0 0 0 0 0 0 0 0 0 0 0 0 0 0 0 2 5 15 23 33 47 78 87 93 113 107
0 0 0 0 0 0 0 0 0 0 0 0 0 0 0 0 0 0 0 0 0 0 0 0 0 0 0 0 0 0 0 0 0 2 17 37 51 60 78 72 75 112 115
0 0 0 0 0 0 0 0 0 0 0 0 0 0 0 0 0 0 0 0 0 0 0 0 0 0 0 0 0 0 0 0 0 4 9 19 32 75 100 108 114 88 70
0 0 0 0 0 0 0 0 0 0 0 0 0 0 0 0 0 0 0 0 0 0 0 0 0 0 0 0 0 0 0 0 0 9 29 43 63 75 92 108 145 159 131
0 0 0 0 0 0 0 0 0 0 0 0 0 0 0 0 0 0 0 0 0 0 0 0 0 0 0 0 0 0 0 0 15 45 57 69 65 67 91 102 109 106 96
0 0 0 0 0 0 0 0 0 0 0 0 0 0 0 0 0 0 0 0 0 0 0 0 0 0 0 0 0 0 0 24 24 24 38 65 51 57 67 98 95 116 127
0 0 0 0 0 0 0 0 0 0 0 0 0 0 0 0 0 0 0 0 0 0 0 0 0 0 0 0 0 0 0 0 14 27 45 53 61 86 76 56 62 68 68
0 0 0 0 0 0 0 0 0 0 0 0 0 0 0 0 0 0 0 0 0 0 0 0 0 0 0 0 0 0 0 3 10 31 56 78 95 86 56 67 62 76 109
0 0 0 0 0 0 0 0 0 0 0 0 0 0 0 0 0 0 0 0 0 0 0 0 0 0 0 0 0 0 0 0 0 28 78 81 85 80 67 64 52 86 84
0 0 0 0 0 0 0 0 0 0 0 0 0 0 0 0 0 0 0 0 0 0 0 0 0 0 0 0 0 0 0 0 0 57 64 64 48 37 45 41 51 71 76
0 0 0 0 0 0 0 0 0 0 0 0 0 0 0 0 0 0 0 0 0 0 0 0 0 0 0 0 0 0 0 0 0 16 25 12 13 26 12 58 66 56 62
0 0 0 0 0 0 0 0 0 0 0 0 0 0 0 0 0 0 0 0 0 0 0 0 0 0 0 0 0 0 0 0 0 0 0 0 0 0 58 47 0 38 42
0 0 0 0 0 0 0 0 0 0 0 0 0 0 0 0 0 0 0 0 0 0 0 0 0 0 0 0 0 0 0 0 0 0 0 0 0 0 0 0 0 0 0
0 0 0 0 0 0 0 0 0 0 0 0 0 0 0 0 0 0 0 0 1 1 0 0 0 0 0 0 0 0 0 0 0 0 0 0 0 0 0 0 0 0 0
0 0 0 0 0 0 0 0 0 0 0 0 0 0 0 0 0 0 0 0 0 106 96 7 0 0 0 0 0 0 0 0 0 0 0 0 0 0 0 0 0 0 0
0 0 0 0 0 0 0 0 0 0 0 0 0 0 0 0 0 0 0 0 14 19 0 0 0 0 0 0 0 0 0 0 0 0 0 0 0 0 0 0 0 0 0
0 0 0 0 0 0 0 0 0 0 0 0 0 0 0 0 0 0 0 0 0 0 0 0 0 0 0 0 0 0 0 0 0 0 0 0 0 0 0 0 0 0 0
0 0 0 0 0 0 0 0 0 0 0 0 0 0 0 0 0 46 0 0 0 0 0 0 0 0 0 0 0 0 0 0 0 0 0 0 0 0 0 0 0 0 0